Theta_e
306 304 307 307 307 309 309 310 308 308 308 309 308 309 309 309 309 308 308 309 310 311 312 314 316 319 327 333 335 337 338 337 337 339 341 340 337 337 336 341 343 343 343 344
304 306 306 307 308 308 307 307 309 309 312 311 311 311 310 308 308 308 308 309 309 309 311 312 314 316 320 324 332 334 334 335 334 334 341 343 343 344 343 345 346 346 347 347
306 307 307 308 307 310 310 312 312 312 312 311 310 310 309 309 308 308 308 308 307 308 309 310 311 313 315 319 322 326 328 328 332 333 341 345 346 346 346 346 346 346 347 343
306 306 308 307 307 311 310 312 312 312 312 311 311 310 309 310 309 308 307 306 306 306 306 307 308 309 311 313 317 320 324 328 327 331 338 343 344 344 343 344 344 342 339 337
307 308 307 308 309 311 309 312 311 311 311 311 311 311 309 308 309 309 309 309 311 310 310 311 311 312 313 314 315 317 322 325 326 329 339 344 344 342 342 342 340 339 339 341
306 307 308 309 311 310 311 310 307 309 309 312 310 310 310 307 307 307 313 313 312 311 311 311 313 314 316 317 316 315 320 328 331 331 336 344 343 340 338 337 337 336 335 335
306 307 310 311 310 308 308 306 307 309 310 313 310 312 310 310 311 314 314 312 311 310 310 311 311 313 315 316 319 317 316 328 333 333 338 341 340 339 339 336 333 333 334 336
306 309 308 312 309 308 308 307 306 309 311 308 309 313 311 314 313 313 313 311 310 310 308 309 310 312 314 316 320 320 315 317 328 334 336 338 339 338 336 334 332 331 332 333
310 311 310 310 309 309 309 311 308 306 311 313 311 311 309 313 313 312 311 311 309 308 308 309 309 311 314 316 317 319 322 320 318 329 335 335 337 335 333 331 330 331 334 339
310 312 310 310 310 309 308 307 309 308 315 315 313 312 312 309 310 312 312 310 308 308 309 311 311 311 313 315 315 319 322 327 320 320 330 332 332 332 333 333 333 336 339 343
311 310 311 311 310 309 308 309 312 310 313 314 314 312 309 311 312 312 311 310 308 308 310 311 311 311 313 314 314 318 320 326 325 318 323 330 331 332 333 334 335 338 342 344
311 310 313 312 311 310 309 309 311 314 313 314 315 314 310 310 308 310 310 310 309 310 311 311 311 312 313 312 313 316 320 326 330 319 321 327 330 333 336 338 338 342 344 344
311 309 314 310 309 309 311 312 313 313 313 315 313 311 309 309 310 309 311 311 310 310 310 311 311 312 312 312 314 316 321 331 334 322 325 332 336 338 340 342 344 345 344 344
311 309 311 313 311 310 313 312 313 313 316 313 313 311 311 310 310 310 312 311 310 310 315 313 312 312 311 312 314 316 321 334 334 333 335 339 340 341 342 343 344 344 343 341
310 314 313 313 312 313 313 314 314 315 313 316 313 312 310 310 309 312 312 312 313 317 319 317 319 317 316 315 319 320 325 340 340 340 342 343 343 342 342 343 343 342 341 341
311 313 312 313 312 312 313 314 314 314 314 314 313 313 310 310 310 310 310 310 311 319 317 315 317 323 326 323 329 326 334 344 344 342 342 343 343 343 344 342 341 341 342 342
307 310 315 314 313 313 315 315 316 315 315 315 316 313 311 311 311 309 309 309 312 313 313 314 314 319 324 327 328 331 333 339 342 341 341 341 341 341 342 341 341 339 339 338
308 312 314 313 310 313 311 314 314 314 314 312 313 312 312 311 309 308 308 311 311 311 312 313 313 316 323 327 327 328 331 332 339 340 340 339 338 337 335 334 335 336 336 334
306 310 316 312 311 311 311 315 315 313 313 311 313 312 311 309 309 308 309 309 309 310 311 312 312 315 325 327 327 328 327 326 333 339 338 337 335 334 333 332 331 331 331 330
312 314 314 312 314 310 308 315 312 311 313 313 310 309 309 309 310 309 308 309 310 311 313 313 312 318 326 327 326 327 326 327 329 337 337 333 333 332 331 331 331 331 331 329
312 312 314 313 316 311 312 313 312 314 310 309 308 309 310 311 310 309 309 310 311 313 314 313 317 324 325 324 327 327 327 333 336 337 333 331 331 331 331 331 331 331 329 328
306 308 314 315 313 310 312 312 314 311 311 310 308 309 310 311 310 309 310 311 312 313 315 316 319 325 325 323 326 327 329 334 333 332 331 330 329 329 329 330 330 330 329 327
310 310 312 311 308 310 312 312 311 310 310 309 309 310 310 309 310 310 311 312 313 313 314 316 321 325 325 325 326 326 330 331 330 329 329 330 330 330 330 330 329 328 328 326
308 306 308 311 313 312 312 312 309 308 307 308 309 309 308 309 310 312 311 312 313 314 316 318 322 326 326 325 326 330 330 330 329 329 329 330 330 330 330 330 329 328 327 325
308 308 311 313 311 312 312 311 307 306 306 308 309 308 308 310 311 311 312 312 314 315 317 320 324 330 330 331 330 331 330 330 329 329 329 328 329 329 328 328 328 328 329 328
307 311 313 313 313 313 313 310 305 305 307 309 307 308 308 309 310 310 311 312 314 317 320 324 329 328 327 331 330 331 330 330 330 328 328 327 327 326 324 324 324 328 329 329
Wind_Speed
3 4 3 6 7 7 4 4 4 5 5 6 7 17 13 7 7 8 8 9 8 10 8 8 10 20 28 34 35 37 38 38 36 27 32 33 31 45 44 51 48 46 34 32
5 2 5 4 3 3 1 1 3 4 6 9 13 22 15 5 6 6 8 8 9 9 12 12 9 10 17 31 37 42 44 46 50 38 34 27 26 27 37 39 43 40 31 32
4 6 4 2 4 3 2 2 3 5 6 5 8 20 8 3 5 8 7 8 8 8 12 15 13 15 20 20 32 43 45 42 41 44 35 26 23 25 24 31 37 39 35 33
4 4 2 4 1 3 3 1 3 6 6 4 4 14 18 13 10 6 8 8 9 11 10 10 13 14 21 30 23 27 42 44 39 44 37 34 34 29 32 34 38 39 32 34
9 3 5 1 3 3 5 2 3 3 5 3 3 4 19 5 13 14 11 6 5 7 9 10 13 16 26 27 29 24 31 41 42 41 39 37 36 32 29 29 29 32 32 32
7 3 5 4 3 1 1 3 5 4 1 3 7 6 16 3 5 8 4 7 8 7 9 11 14 20 20 28 30 28 26 33 38 37 42 38 36 33 28 25 27 26 25 25
1 0 1 2 1 4 5 6 4 4 2 5 4 4 10 16 16 4 5 9 9 7 8 10 11 13 19 22 29 30 26 29 31 35 38 40 36 35 37 37 33 29 24 22
2 4 3 0 4 4 4 7 4 5 3 11 6 7 6 5 7 6 8 10 11 11 7 9 12 11 15 20 23 27 24 28 29 32 37 41 44 40 40 40 39 32 26 23
2 4 5 6 2 3 2 4 5 3 2 1 5 7 8 8 8 6 8 7 10 12 11 10 11 12 17 20 25 26 27 26 31 35 38 40 42 40 40 39 32 27 24 23
4 4 5 2 2 5 6 4 2 2 4 5 5 6 9 8 10 9 11 9 11 11 15 16 10 12 19 21 25 30 26 28 29 35 39 42 45 40 36 31 28 28 24 22
2 4 5 2 5 5 2 2 2 2 3 4 6 7 7 10 9 10 13 11 9 15 16 15 14 18 19 24 24 29 27 25 23 33 37 37 36 34 31 28 28 28 23 25
2 3 4 7 15 7 6 6 5 4 4 5 3 12 8 12 10 7 14 13 13 16 15 13 14 12 18 21 21 25 25 24 23 27 31 34 34 28 25 27 28 26 25 29
4 1 4 6 3 4 3 3 5 4 4 10 5 11 2 6 15 17 15 19 16 10 10 13 14 12 13 18 19 22 23 22 20 26 27 26 26 26 28 29 27 26 29 29
3 4 6 9 11 8 18 19 17 11 5 8 13 21 19 19 16 14 15 14 15 10 19 17 15 13 14 15 17 20 23 18 18 23 24 24 27 30 32 30 28 30 29 27
7 5 7 13 17 19 22 23 20 18 17 13 16 21 19 18 10 8 12 15 14 13 21 20 19 12 10 7 15 17 19 12 17 23 27 28 30 31 29 28 29 29 29 29
1 3 6 17 16 13 15 17 17 17 18 18 20 20 12 5 8 11 14 17 16 11 13 22 21 18 11 7 13 10 4 9 16 14 17 24 24 27 28 29 31 32 30 29
4 2 3 5 5 11 7 4 2 2 4 4 7 13 8 14 14 14 18 20 16 12 12 19 20 20 16 9 9 7 14 15 19 20 18 21 26 28 29 30 31 31 33 31
5 4 3 4 5 3 5 3 3 5 10 14 15 14 9 13 15 14 18 8 13 18 20 18 17 18 25 16 13 12 15 8 12 18 19 23 27 28 28 30 33 32 32 31
10 5 4 3 3 6 8 4 2 2 16 12 6 12 18 17 15 13 7 15 19 18 18 16 23 28 25 24 17 8 11 4 9 14 22 26 32 31 32 30 30 33 32 29
5 4 4 2 3 5 4 2 4 6 11 4 11 15 17 16 15 13 15 20 22 20 17 15 24 26 12 10 16 10 10 9 6 21 26 29 32 32 29 34 31 29 29 28
2 3 9 8 5 7 4 1 3 2 8 11 15 14 19 14 13 18 20 19 20 19 18 25 19 15 11 14 5 9 5 7 25 27 29 31 32 33 34 31 29 28 28 27
3 2 3 2 3 7 2 4 4 4 12 14 14 18 17 15 19 21 20 20 20 19 19 24 15 13 10 11 5 1 7 13 30 32 32 31 32 32 31 31 28 29 29 26
3 4 2 6 5 3 2 11 14 13 9 15 17 15 12 18 19 19 19 19 18 18 16 22 16 10 13 13 4 10 18 23 31 29 30 31 30 30 31 29 26 25 28 19
4 2 3 3 3 10 12 16 8 7 10 14 16 12 18 17 17 18 19 16 16 15 14 18 14 8 11 18 19 23 22 29 31 27 27 29 29 26 29 27 28 26 19 17
7 3 5 6 13 12 13 8 8 12 13 11 10 17 17 16 16 18 18 17 16 16 15 18 12 6 5 9 16 21 26 31 26 25 24 25 29 27 25 21 19 24 25 26
3 6 5 6 11 14 12 10 9 11 13 10 14 16 14 14 16 18 17 15 16 15 15 11 8 8 17 10 17 18 26 33 28 22 21 24 26 26 25 23 17 18 20 18
Wind_Direction
353 73 206 247 215 239 272 286 292 274 328 342 289 302 308 283 288 288 295 305 308 301 302 294 292 272 243 224 210 210 215 217 219 233 221 223 223 229 239 243 244 243 241 241
14 285 214 253 274 209 268 319 321 295 336 339 315 298 302 270 266 266 281 296 299 303 311 315 313 294 260 245 232 226 220 225 230 233 233 230 226 239 229 234 236 238 240 244
165 251 313 296 4 38 353 135 301 292 321 276 318 295 298 311 316 288 274 275 303 287 301 306 311 307 297 258 248 236 235 236 234 227 232 231 234 231 225 227 235 240 241 247
226 266 259 329 284 123 337 1 316 322 354 302 88 292 289 290 278 258 279 282 287 306 315 313 314 312 307 301 288 265 246 235 232 230 222 218 224 223 228 230 235 241 240 241
242 207 306 267 192 168 227 237 275 272 266 275 194 249 283 14 283 272 264 271 316 317 303 309 309 309 306 307 309 297 266 242 231 233 222 216 220 226 227 233 237 239 239 238
253 234 145 210 188 228 5 8 339 30 21 308 227 201 290 292 278 313 347 308 296 286 288 300 298 301 308 319 317 311 287 247 232 226 230 215 217 215 210 217 224 225 228 236
313 218 130 102 33 352 74 54 330 338 1 238 296 321 258 284 307 215 279 287 279 270 276 292 298 304 314 316 316 312 302 271 245 223 225 218 218 215 218 224 228 226 227 236
149 325 173 202 207 214 241 155 164 250 236 282 296 247 252 203 243 251 257 274 287 297 269 264 281 286 288 300 306 315 302 280 262 242 220 224 221 221 224 227 230 231 232 242
69 278 315 315 129 106 247 185 195 193 236 282 232 281 293 218 267 270 252 259 272 285 295 280 277 280 277 287 299 298 303 288 265 247 230 220 220 219 222 228 232 233 229 232
195 272 254 273 358 279 178 179 282 356 278 246 253 253 246 268 267 282 289 284 290 297 303 299 287 280 273 283 298 292 293 293 267 250 237 227 223 225 227 231 230 221 218 221
151 160 278 284 211 211 329 305 123 195 207 240 282 254 218 242 244 255 272 278 282 286 285 287 294 285 276 283 289 281 290 291 276 241 237 230 228 228 229 228 223 216 210 211
180 165 256 252 281 274 202 219 168 194 251 236 234 262 241 264 285 279 271 274 276 272 274 274 281 282 280 272 275 272 290 293 281 245 231 227 226 220 216 213 209 204 200 193
184 346 321 316 12 6 225 221 199 230 212 234 237 266 295 313 305 296 288 279 264 278 291 309 295 285 272 270 268 274 295 294 273 232 216 207 203 199 200 196 191 192 190 185
136 177 192 256 264 280 285 276 264 244 241 260 234 275 271 286 288 304 303 297 269 304 329 313 297 277 261 252 264 284 297 302 234 203 183 180 182 185 186 183 184 183 182 176
139 225 233 259 269 275 276 277 272 261 253 248 267 264 283 284 291 314 338 341 327 325 340 322 316 293 283 307 298 282 293 274 191 172 169 170 168 173 173 172 173 173 170 170
178 264 314 290 276 263 268 265 258 256 262 264 262 268 269 322 321 335 331 315 311 333 325 313 314 319 307 311 326 279 227 182 169 163 165 148 148 155 160 160 161 164 166 167
181 266 259 258 326 314 278 255 273 320 263 297 283 277 337 323 327 328 317 302 303 324 312 299 306 308 316 302 8 269 198 141 153 146 150 145 149 151 158 153 156 156 157 161
198 196 238 276 356 269 246 208 228 272 288 287 262 285 318 309 310 307 296 301 314 314 306 304 301 297 317 306 319 341 248 143 151 141 147 150 143 139 140 142 144 151 156 158
188 164 257 247 229 290 286 207 209 27 298 289 334 328 309 310 304 299 295 313 303 298 293 292 293 294 298 291 310 266 252 242 96 154 157 155 142 136 134 136 143 149 152 154
156 208 234 282 256 256 248 163 85 322 282 131 320 311 308 307 300 301 314 302 297 295 288 279 279 288 275 276 243 207 183 201 164 190 162 145 136 135 138 143 146 153 157 156
237 240 254 260 260 271 246 93 53 275 300 320 329 318 303 293 283 301 298 292 286 290 297 292 284 291 305 344 238 158 52 199 187 164 143 132 133 138 144 146 153 154 148 145
213 179 255 228 253 280 172 5 227 263 310 307 302 304 289 290 296 293 295 293 295 301 304 305 303 298 310 304 275 272 228 188 156 141 132 133 139 137 143 146 145 148 145 139
288 200 242 204 234 246 185 273 278 284 282 292 299 297 301 299 292 292 293 292 297 295 295 302 298 328 326 310 263 275 254 172 130 125 126 133 131 136 147 142 136 132 140 133
281 198 240 329 260 304 299 284 265 273 293 290 299 303 308 296 293 297 298 298 295 298 295 294 297 274 291 282 270 177 148 134 126 120 123 130 128 129 142 148 152 141 136 142
256 270 254 250 272 300 274 271 284 295 293 287 305 311 303 301 303 302 300 297 296 292 290 287 283 275 287 20 129 147 130 124 117 117 123 128 129 133 135 140 146 160 170 169
208 223 263 289 314 292 285 276 287 298 305 319 317 313 313 310 301 299 295 298 290 283 277 271 278 341 4 11 130 132 132 136 127 121 130 135 137 140 149 147 143 166 174 179